Location: Unspecified
(47.1121°N, 116.3927°W)
Time: 05:07:35
(UTC-08:00)

Resurs 1-4 Rocket - Pass Details

Date: 17 October 2019
Orbit: 800 x 813 km, 98.6° (Epoch: 14 November)

Event Time Altitude Azimuth Distance (km) Brightness Sun altitude
Rises 04:04:47 0° 2° (N) 3,346 5.6 -31.2°
Reaches altitude 10° 04:07:43 10° 346° (NNW) 2,411 4.6 -30.7°
Enters shadow 04:08:01 11° 344° (NNW) 2,328 4.5 -30.7°
